Location: Boise
(43.6140°N, 116.2030°W)
Time: 11:00:47
(UTC-06:00)

Daily predictions for brighter satellites

Satellite Brightness Start Highest point End
(mag) Time Altitude Azimuth Time Altitude Azimuth Time Altitude Azimuth
Cosmos 2074 Rocket 4.5 19:54:35 10° SSE 20:00:09 37° E 20:05:45 10° NNE
Geosat 4.2 20:00:38 10° SE 20:05:30 54° ENE 20:10:24 10° NNW
YAOGAN 1 4.1 20:02:32 10° S 20:06:38 42° W 20:10:45 10° NNW
Cosmos 1378 3.1 20:03:05 10° N 20:06:52 68° E 20:10:37 10° SSE
Cosmos 1709 Rocket 4.2 20:00:41 10° S 20:07:04 86° W 20:13:29 10° N
Cosmos 1707 2.7 20:03:30 10° N 20:07:27 78° E 20:11:22 10° SSE
Cosmos 2369 Rocket 4.4 20:04:15 10° NW 20:09:03 29° WSW 20:13:48 10° SSW
FALCON 9 R/B 2.8 20:09:34 10° SSW 20:11:41 19° SSE 20:15:10 10° ESE
Cosmos 1766 4.1 20:09:43 10° SSE 20:13:07 29° E 20:16:32 10° NNE
SKYMED 2 4.2 20:10:07 10° N 20:14:26 63° WNW 20:18:43 10° SSW
COSMOS 2406 3.6 20:09:57 10° S 20:15:16 43° ESE 20:20:40 10° NE
Cosmos 2150 Rocket 4.5 20:10:01 10° NNW 20:15:21 70° WSW 20:20:43 10° S
Cosmos 1606 Rocket 3.9 20:11:20 10° SSW 20:15:39 69° W 20:19:57 10° N
USA 81 4.0 20:11:58 10° N 20:17:16 74° E 20:22:32 10° S
ATLAS 2AS CENTAUR R/B 4.2 20:10:41 10° NNW 20:17:28 28° NNE 20:23:48 10° E
Cosmos 1953 Rocket 3.9 20:13:26 10° NNW 20:17:45 71° W 20:22:02 10° S
Meteor 2-5 Rocket 3.8 20:12:18 10° N 20:18:12 83° E 20:23:55 10° SSE
SAR-Lupe-3 4.5 20:15:00 10° NNE 20:18:36 80° ESE 20:22:10 10° S
GP-B 4.5 20:15:54 10° NE 20:19:05 19° E 20:22:15 10° SE
Resurs 01 Rocket 2.9 20:16:13 10° ESE 20:19:34 22° ENE 20:22:55 10° NNE
Cosmos 841 Rocket 3.4 20:14:52 10° SSW 20:19:58 75° ESE 20:25:07 10° NNE
Cosmos 389 Rocket 3.9 20:17:55 10° SSW 20:21:14 42° WNW 20:24:34 10° N
Cosmos 2058 Rocket 3.0 20:19:34 10° S 20:23:55 86° ESE 20:28:20 10° N
Cosmos 1937 Rocket 4.5 20:19:13 10° NNW 20:24:20 51° WSW 20:29:24 10° S
SL-27 R/B 4.0 20:22:14 10° SE 20:24:36 17° E 20:27:00 10° ENE
NOSS 3-1 (A) 4.1 20:20:05 10° NW 20:27:41 84° NE 20:36:09 10° SE
ATLAS CENTAUR R/B 3.8 20:13:17 10° NW 20:29:24 81° SW 20:34:33 10° SE
FengYun 1-2 T 4.2 20:25:16 10° SSE 20:30:48 68° ENE 20:36:19 10° N
Cosmos 540 Rocket 3.6 20:27:46 10° S 20:32:38 48° ESE 20:37:33 10° NNE
HJ-1C 3.6 20:29:51 10° SSE 20:33:05 47° ENE 20:36:20 10° N
NOSS 3-1 (C) 4.4 20:28:04 10° NW 20:35:39 72° WSW 20:44:02 10° SSE
Cosmos 1763 Rocket 4.2 20:33:15 10° SW 20:38:17 58° WNW 20:43:25 10° NNE
Cosmos 2184 Rocket 4.0 20:32:46 10° S 20:39:02 71° E 20:45:24 10° NNE
Cosmos 1805 3.6 20:41:09 10° SSE 20:44:47 39° E 20:48:27 10° NNE
Cosmos 1939 Rocket 4.2 20:49:37 20° ENE 20:49:50 20° ENE 20:52:44 10° NNE
CZ-2D R/B 3.4 20:49:03 14° SSE 20:52:06 51° ENE 20:55:49 10° N
Cosmos 292 Rocket 4.3 20:50:50 10° SSE 20:55:12 35° ESE 20:59:37 10° NE
Cosmos 2327 Rocket 4.4 20:51:39 10° S 20:57:45 89° ESE 21:03:51 10° N
Cosmos 2278 4.5 20:54:46 10° N 20:59:52 33° NE 21:02:01 25° E
BREEZE-M DEB (TANK) 3.7 20:49:20 10° SW 21:01:48 63° SSE 21:04:19 26° E
ISS -3.5 20:59:44 10° SSW 21:02:51 42° SE 21:02:58 42° SE
Spot 2 Rocket 3.5 21:08:15 21° SSE 21:11:37 62° ENE 21:16:35 10° N
Cosmos 1656 4.4 21:10:43 10° N 21:15:56 36° NE 21:17:15 32° E
Cosmos 1697 Rocket 3.7 21:14:35 10° N 21:19:26 28° NE 21:20:16 27° ENE
SJ-6B 4.2 21:15:42 10° S 21:19:27 39° W 21:23:10 10° NNW
Cosmos 1076 Rocket 4.0 21:15:58 10° N 21:19:55 39° ENE 21:19:55 39° ENE
Cosmos 1980 Rocket 3.7 21:17:09 10° N 21:21:07 19° NE 21:21:37 19° NE
SJ 16-02 1.3 21:16:44 10° NNW 21:21:09 84° WSW 21:23:17 30° SSE
Cosmos 1953 2.2 21:22:55 33° S 21:24:37 68° E 21:28:40 10° NNE
Resurs 1-3 3.6 21:26:48 27° S 21:29:10 81° WSW 21:33:35 10° NNW
Cosmos 1356 4.3 21:26:21 10° NNW 21:29:44 50° W 21:31:15 28° SSW
YAOGAN 6 4.1 21:31:35 25° NNE 21:31:35 25° NNE 21:33:27 10° N
Cosmos 783 Rocket 4.4 21:25:55 10° SSW 21:31:06 86° ESE 21:36:20 10° NNE
ERS-1 Rocket 4.4 21:32:12 23° NE 21:32:12 23° NE 21:35:16 10° NNE
SJ-11-01 4.2 21:35:48 59° E 21:36:14 62° ENE 21:40:55 10° N
Envisat 3.1 21:41:27 28° S 21:44:06 73° WSW 21:49:11 10° NNW
Cosmos 2154 Rocket 4.3 21:38:20 10° SSW 21:44:31 68° W 21:50:47 10° N
ARGOS 4.4 21:46:56 26° NE 21:46:56 26° NE 21:50:22 10° N
SL-16 R/B 4.3 21:46:40 10° NNE 21:48:58 13° NE 21:48:58 13° NE
Cosmos 1674 3.4 21:48:03 10° NNW 21:51:41 50° W 21:51:42 50° W
Resurs 01 Rocket 2.9 21:53:17 21° SSW 21:55:48 39° W 21:59:58 10° NNW
GP-B 4.4 21:52:25 10° NNW 21:56:34 40° W 22:00:42 10° SSW
Cosmos 2341 Rocket 4.1 21:52:10 10° SSW 21:58:21 74° W 22:04:36 10° N
SL-27 R/B 4.3 21:56:17 10° SW 21:59:33 31° WNW 22:02:52 10° N
Milstar 3 Cent rocket 4.2 21:58:52 10° SSW 21:59:30 12° SSW 21:59:30 12° SSW
H-2A R/B 3.8 22:08:51 19° NNE 22:08:51 19° NNE 22:10:49 10° N
Meteor 2-21 4.4 22:06:45 36° S 22:09:28 86° W 22:15:38 10° N
ATLAS 2AS CENTAUR R/B 2.8 22:01:43 10° NW 22:09:47 79° NE 22:11:15 62° ESE
Cosmos 2369 3.7 22:04:25 10° NNW 22:10:05 74° WSW 22:10:35 69° SSW
Cosmos 1959 Rocket 4.3 22:10:49 75° E 22:10:49 75° E 22:17:01 10° N
Cosmos 2366 rocket 4.0 22:18:51 69° NE 22:18:51 69° NE 22:24:30 10° N
Meteor 2-15 Rocket 4.4 22:16:50 10° N 22:22:55 80° W 22:23:09 78° SW
Cosmos 2218 Rocket 3.9 22:23:24 88° W 22:23:24 88° W 22:29:39 10° N
Cosmos 2285 Rocket 4.2 22:20:06 10° SSW 22:26:29 68° WNW 22:32:56 10° NNE
Cosmos 2082 Rocket 4.3 22:42:52 17° NNE 22:42:52 17° NNE 22:44:07 10° NNE
Cosmos 1727 Rocket 4.3 22:42:20 10° N 22:47:43 64° NW 22:47:43 64° NW
Cosmos 2322 Rocket 4.0 22:50:51 10° N 22:53:17 22° N 22:53:17 22° N
Cosmos 1697 Rocket 3.9 22:58:12 10° NW 23:02:00 38° WNW 23:02:00 38° WNW
Cosmos 2360 Rocket 4.5 22:59:52 10° N 23:01:20 14° NNE 23:01:20 14° NNE
Cosmos 1980 Rocket 3.5 23:00:08 10° NNW 23:03:24 36° NNW 23:03:24 36° NNW
SL-16 R/B 4.2 23:28:48 10° NNW 23:30:50 23° NNW 23:30:50 23° NNW
